Location: Bocianicha
(51.5066°N, 19.2563°E)
Time: 13:27:01
(UTC+00:00)

Envisat - Pass Details

Date: 15 June 2025
Orbit: 761 x 763 km, 98.3° (Epoch: 17 July)

Event Time Altitude Azimuth Distance (km) Brightness Sun altitude
Rises 01:15:17 0° 18° (NNE) 3,239 8.0 -8.1°
Reaches altitude 10° 01:17:42 10° 24° (NNE) 2,308 7.1 -7.9°
Maximum altitude 01:22:36 48° 99° (E) 997 3.9 -7.4°
Drops below altitude 10° 01:27:29 10° 174° (S) 2,290 5.0 -7.0°
Enters shadow 01:29:40 - 179° (S) 3,139 5.7 -6.8°
